Location: Unspecified
(0.0000°N, 0.0000°E)
Time: 06:02:08
(UTC+00:00)

Courier 1B - Pass Details

Date: 27 September 2023
Orbit: 962 x 1208 km, 28.3° (Epoch: 06 December)

Event Time Altitude Azimuth Distance (km) Brightness Sun altitude
Rises 11:45:04 0° 279° (W) 3,953 10.7 87.8°
Reaches altitude 10° 11:48:56 10° 298° (WNW) 3,037 10.2 88.3°
Maximum altitude 11:53:40 18° 338° (NNW) 2,558 10.0 88.2°
Drops below altitude 10° 11:58:30 10° 17° (NNE) 3,114 10.3 87.5°
Sets 12:02:35 0° 35° (NE) 4,094 10.7 86.7°
